This is the latest recevied weather packets stored in our database for station/object IK6IHU-3. If no packets are shown the sender has not sent any weather packets the latest 10 day(s).
| Time | Temp. | Humidity | Pressure | Rain* | Wind** | Luminosity | Snow |
|---|---|---|---|---|---|---|---|
| 1777284784 | 22.22° C | 42% | 1017.5 hPa | 0 mm | - | 0 W/m² | - |
| 1777284724 | 22.22° C | 40% | 1017.3 hPa | 0 mm | - | 0 W/m² | - |
| 1777284664 | 22.22° C | 44% | 1017.5 hPa | 0 mm | - | 0 W/m² | - |
| 1777284604 | 22.22° C | 43% | 1017.4 hPa | 0 mm | - | 0 W/m² | - |
| 1777284544 | 22.22° C | 40% | 1017.5 hPa | 0 mm | - | 0 W/m² | - |
| 1777284484 | 22.22° C | 44% | 1017.4 hPa | 0 mm | - | 0 W/m² | - |
| 1777284424 | 22.22° C | 44% | 1017.5 hPa | 0 mm | - | 0 W/m² | - |
| 1777284364 | 22.22° C | 40% | 1017.6 hPa | 0 mm | - | 0 W/m² | - |
| 1777283944 | 22.22° C | 40% | 1017.7 hPa | 0 mm | - | 0 W/m² | - |
| 1777283884 | 21.67° C | 41% | 1017.6 hPa | 0 mm | - | 0 W/m² | - |
| 1777283584 | 22.22° C | 43% | 1017.6 hPa | 0 mm | - | 0 W/m² | - |
| 1777282745 | 21.67° C | 42% | 1017.8 hPa | 0 mm | - | 0 W/m² | - |
| 1777282324 | 22.22° C | 44% | 1017.9 hPa | 0 mm | - | 0 W/m² | - |
| 1777282264 | 22.22° C | 45% | 1018 hPa | 0 mm | - | 0 W/m² | - |
| 1777282144 | 22.22° C | 41% | 1017.7 hPa | 0 mm | - | 0 W/m² | - |
| 1777282084 | 21.67° C | 42% | 1017.9 hPa | 0 mm | - | 0 W/m² | - |
| 1777282025 | 21.67° C | 43% | 1017.9 hPa | 0 mm | - | 0 W/m² | - |
| 1777281964 | 21.67° C | 42% | 1018 hPa | 0 mm | - | 0 W/m² | - |
| 1777281904 | 21.67° C | 44% | 1017.9 hPa | 0 mm | - | 0 W/m² | - |
| 1777281844 | 21.67° C | 43% | 1018 hPa | 0 mm | - | 0 W/m² | - |
| 1777281784 | 21.67° C | 42% | 1017.9 hPa | 0 mm | - | 0 W/m² | - |
| 1777281724 | 21.67° C | 42% | 1018 hPa | 0 mm | - | 0 W/m² | - |
| 1777281664 | 21.67° C | 42% | 1018.1 hPa | 0 mm | - | 0 W/m² | - |
| 1777281604 | 21.67° C | 41% | 1018 hPa | 0 mm | - | 0 W/m² | - |
| 1777281544 | 21.67° C | 42% | 1018 hPa | 0 mm | - | 0 W/m² | - |
* Rain latest hour (hover to see other rain measurements)
** Current wind speed in m/s (hover to see current wind gust speed)